Sitka, AK

1:09 AM AKDT on May 30, 2017 (GMT -0800)
Sitka Rocky Gutierrez

Weather History for PASI - August, 2013

Change the Weather History Date:

Tuesday, August 27, 2013

  Actual Average Record
Temperature  
Mean Temperature 60 °F -  
Max Temperature 66 °F 61 °F 73 °F (1966)
Min Temperature 55 °F 51 °F 42 °F (1984)
Degree Days  
Heating Degree Days 4    
Growing Degree Days 10 (Base 50)    
Moisture  
Dew Point 53 °F    
Average Humidity 76    
Maximum Humidity 93    
Minimum Humidity 52    
Precipitation  
Precipitation 0.03 in - - ()
Sea Level Pressure  
Sea Level Pressure 29.77 in    
Wind  
Wind Speed 5 mph (South)    
Max Wind Speed 12 mph    
Max Gust Speed 22 mph    
Visibility 10 miles    
Events Rain    
Averages and records for this station are not official NWS values.
T = Trace of Precipitation, MM = Missing Value Source: NWS Daily Summary

Daily Weather History Graph

Daily Weather History Graph

Search for Another Location

Airport or City:

Trip Planner

Search our weather history database for the weather conditions in past years. The results will help you decide how hot, cold, wet, or windy it might be!

Date:

Astronomy

Aug. 27, 2013 Rise Set
Actual Time 5:54 AM AKDT 8:10 PM AKDT
Civil Twilight 5:12 AM AKDT 8:51 PM AKDT
Nautical Twilight 4:18 AM AKDT 9:44 PM AKDT
Astronomical Twilight 3:11 AM AKDT 10:50 PM AKDT
Moon 10:37 PM AKDT (8/27) 2:30 PM AKDT (8/27)
Length of Visible Light 15h 39m
Length of Day
14h 16m
Waning Gibbous, 55% of the Moon is Illuminated
Aug 27
Waning Gibbous
Aug 28
Last Quarter
Sep 5
New
Sep 12
First Quarter
Sep 19
Full

Hourly Weather History & Observations

Time (AKDT) Temp. Dew Point Humidity Pressure Visibility Wind Dir Wind Speed Gust Speed Precip Events Conditions
12:53 AM 61.0 °F 53.1 °F 75% 29.67 in 10.0 mi Calm Calm - N/A   Overcast
1:53 AM 64.0 °F 52.0 °F 65% 29.67 in 10.0 mi ESE 5.8 mph - N/A   Overcast
2:53 AM 64.0 °F 51.1 °F 63% 29.66 in 10.0 mi ESE 8.1 mph - N/A   Overcast
3:53 AM 66.0 °F 48.0 °F 52% 29.64 in 10.0 mi ENE 11.5 mph 21.9 mph N/A   Overcast
4:53 AM 66.0 °F 48.0 °F 52% 29.65 in 10.0 mi ENE 6.9 mph - N/A   Overcast
5:53 AM 64.9 °F 50.0 °F 58% 29.66 in 10.0 mi SE 11.5 mph - N/A   Overcast
6:53 AM 64.0 °F 50.0 °F 60% 29.67 in 10.0 mi ESE 8.1 mph - N/A   Mostly Cloudy
7:53 AM 64.9 °F 48.0 °F 54% 29.68 in 10.0 mi ESE 8.1 mph - N/A   Mostly Cloudy
8:53 AM 64.9 °F 48.9 °F 56% 29.70 in 10.0 mi SE 10.4 mph - N/A   Overcast
9:53 AM 62.1 °F 55.0 °F 78% 29.72 in 10.0 mi NW 4.6 mph - 0.00 in Rain Light Rain
10:53 AM 62.1 °F 54.0 °F 75% 29.74 in 10.0 mi NW 5.8 mph - 0.00 in   Overcast
11:53 AM 62.1 °F 54.0 °F 75% 29.75 in 10.0 mi Calm Calm - N/A   Overcast
12:53 PM 62.1 °F 54.0 °F 75% 29.77 in 10.0 mi Calm Calm - N/A   Overcast
1:53 PM 62.1 °F 54.0 °F 75% 29.78 in 10.0 mi Calm Calm - 0.00 in Rain Light Rain
2:53 PM 60.1 °F 55.0 °F 83% 29.80 in 10.0 mi WSW 9.2 mph - 0.00 in Rain Light Rain
3:53 PM 60.1 °F 55.0 °F 83% 29.82 in 10.0 mi SW 6.9 mph - 0.00 in Rain Light Rain
4:53 PM 59.0 °F 54.0 °F 83% 29.83 in 10.0 mi West 6.9 mph - 0.00 in   Overcast
5:00 PM 59.0 °F 55.0 °F 87% 29.83 in 10.0 mi West 6.9 mph - N/A   Overcast
5:53 PM 59.0 °F 55.0 °F 87% 29.83 in 10.0 mi NW 4.6 mph - N/A   Overcast
6:53 PM 59.0 °F 55.0 °F 87% 29.84 in 10.0 mi SW 9.2 mph - N/A   Overcast
7:06 PM 59.0 °F 55.0 °F 87% 29.84 in 10.0 mi SW 8.1 mph - N/A   Overcast
7:53 PM 57.9 °F 54.0 °F 87% 29.85 in 7.0 mi SSW 8.1 mph - 0.00 in Rain Light Rain
8:53 PM 55.9 °F 54.0 °F 93% 29.86 in 3.0 mi North 3.5 mph - 0.03 in Rain Light Rain
9:00 PM 57.0 °F 54.0 °F 89% 29.86 in 7.0 mi North 6.9 mph - 0.00 in Rain Light Rain
9:53 PM 57.0 °F 54.0 °F 89% 29.86 in 10.0 mi Calm Calm - 0.00 in   Overcast
10:53 PM 57.0 °F 54.0 °F 89% 29.86 in 10.0 mi Calm Calm - N/A   Overcast
11:53 PM 57.0 °F 53.1 °F 87% 29.86 in 10.0 mi Calm Calm - N/A   Overcast